K9JVA Weather Reports


time (UTC)temp
C
wind
direction
speed
KPH
gust
KPH
rain 1hr
cm
rain 24hr
cm
rain mn
cm
humidity
%
barometer
mb
20260508220251 20 0.0 0.0 0.00 0.00 0.00 47 1008.6
20260508220007 20 0.0 0.0 0.00 0.00 0.00 46 1008.6
20260508215250 20 0.0 0.0 0.00 0.00 0.00 48 1008.5
20260508214752 20 0.0 0.0 0.00 0.00 0.00 47 1008.5
20260508214412 20 0.0 0.0 0.00 0.00 0.00 46 1008.7
20260508213652 20 0.0 0.0 0.00 0.00 0.00 46 1008.7
20260508213151 21 0.0 0.0 0.00 0.00 0.00 46 1008.8
20260508212653 20 0.0 0.0 0.00 0.00 0.00 46 1008.8
20260508212416 20 0.0 0.0 0.00 0.00 0.00 46 1008.8
20260508211909 21 0.0 0.0 0.00 0.00 0.00 45 1008.8
20260508211152 21 0.0 0.0 0.00 0.00 0.00 45 1009.0
20260508210652 21 0.0 0.0 0.00 0.00 0.00 45 1009.0
20260508210152 21 0.0 0.0 0.00 0.00 0.00 46 1009.2
20260508205652 21 0.0 0.0 0.00 0.00 0.00 43 1009.2
20260508205051 21 0.0 0.0 0.00 0.00 0.00 45 1009.4
20260508204551 21 0.0 0.0 0.00 0.00 0.00 43 1009.4
20260508204530 21 0.0 0.0 0.00 0.00 0.00 45 1009.5
20260508203552 21 0.0 0.0 0.00 0.00 0.00 45 1009.6
20260508203053 21 0.0 0.0 0.00 0.00 0.00 43 1009.6
20260508202553 21 0.0 0.0 0.00 0.00 0.00 43 1009.6
20260508202535 21 0.0 0.0 0.00 0.00 0.00 43 1009.7
20260508201552 21 0.0 0.0 0.00 0.00 0.00 45 1009.7
20260508201052 21 0.0 0.0 0.00 0.00 0.00 45 1009.7
20260508200817 21 0.0 0.0 0.00 0.00 0.00 42 1009.8
20260508195954 21 0.0 0.0 0.00 0.00 0.00 42 1009.8
20260508195452 21 0.0 0.0 0.00 0.00 0.00 42 1009.9
20260508194853 21 0.0 0.0 0.00 0.00 0.00 41 1009.9
20260508194354 22 0.0 0.0 0.00 0.00 0.00 41 1009.8
20260508193854 22 0.0 0.0 0.00 0.00 0.00 42 1010.0
20260508193353 22 0.0 0.0 0.00 0.00 0.00 42 1010.0
20260508193115 22 0.0 0.0 0.00 0.00 0.00 42 1009.9
20260508192354 23 0.0 0.0 0.00 0.00 0.00 39 1010.0
20260508192332 24 0.0 0.0 0.00 0.00 0.00 41 1010.1
20260508191354 25 0.0 0.0 0.00 0.00 0.00 38 1010.1
20260508191010 25 0.0 0.0 0.00 0.00 0.00 38 1010.4
20260508190154 24 0.0 0.0 0.00 0.00 0.00 45 1010.4
20260508185654 23 0.0 0.0 0.00 0.00 0.00 45 1010.4
20260508185154 23 0.0 0.0 0.00 0.00 0.00 40 1010.4
20260508184654 23 0.0 0.0 0.00 0.00 0.00 39 1010.7
20260508184154 23 0.0 0.0 0.00 0.00 0.00 40 1010.7
20260508183654 24 0.0 0.0 0.00 0.00 0.00 39 1010.8
20260508183155 23 0.0 0.0 0.00 0.00 0.00 41 1010.8
20260508183141 22 0.0 0.0 0.00 0.00 0.00 42 1011.0
20260508182155 22 0.0 0.0 0.00 0.00 0.00 41 1011.2
20260508181554 23 0.0 0.0 0.00 0.00 0.00 40 1011.2
20260508180954 24 0.0 0.0 0.00 0.00 0.00 41 1011.1
20260508180648 23 0.0 0.0 0.00 0.00 0.00 42 1011.4
20260508175718 23 0.0 0.0 0.00 0.00 0.00 41 1011.4
20260508174956 22 0.0 0.0 0.00 0.00 0.00 42 1011.5
20260508174455 22 0.0 0.0 0.00 0.00 0.00 43 1011.5
20260508173955 22 0.0 0.0 0.00 0.00 0.00 42 1011.7
20260508173456 23 0.0 0.0 0.00 0.00 0.00 43 1011.7
20260508172956 22 0.0 0.0 0.00 0.00 0.00 41 1012.1
20260508172355 22 0.0 0.0 0.00 0.00 0.00 42 1012.2
20260508171856 22 0.0 0.0 0.00 0.00 0.00 47 1012.1
20260508171355 22 0.0 0.0 0.00 0.00 0.00 45 1012.3
20260508171117 22 0.0 0.0 0.00 0.00 0.00 43 1012.4
20260508170357 22 0.0 0.0 0.00 0.00 0.00 43 1012.5
20260508165856 22 0.0 0.0 0.00 0.00 0.00 45 1012.6
20260508165359 22 0.0 0.0 0.00 0.00 0.00 42 1012.8
20260508164856 22 0.0 0.0 0.00 0.00 0.00 46 1012.8
20260508164356 22 0.0 0.0 0.00 0.00 0.00 45 1013.0
20260508164117 22 0.0 0.0 0.00 0.00 0.00 45 1013.0
20260508163517 22 0.0 0.0 0.00 0.00 0.00 45 1013.0
20260508162925 21 0.0 0.0 0.00 0.00 0.00 45 1013.2
20260508162157 22 0.0 0.0 0.00 0.00 0.00 46 1013.2
20260508161659 22 0.0 0.0 0.00 0.00 0.00 47 1013.2
20260508161156 22 0.0 0.0 0.00 0.00 0.00 47 1013.2
20260508160657 21 0.0 0.0 0.00 0.00 0.00 47 1013.2
20260508160158 21 0.0 0.0 0.00 0.00 0.00 46 1013.3
20260508155657 21 0.0 0.0 0.00 0.00 0.00 43 1013.4
20260508155157 21 0.0 0.0 0.00 0.00 0.00 46 1013.4
20260508154659 21 0.0 0.0 0.00 0.00 0.00 46 1013.5
20260508154059 21 0.0 0.0 0.00 0.00 0.00 46 1013.5
20260508153458 21 0.0 0.0 0.00 0.00 0.00 48 1013.6
20260508152958 21 0.0 0.0 0.00 0.00 0.00 47 1013.8
20260508152719 21 0.0 0.0 0.00 0.00 0.00 46 1013.8
20260508151958 20 0.0 0.0 0.00 0.00 0.00 49 1013.9
20260508151724 20 0.0 0.0 0.00 0.00 0.00 48 1013.9
20260508151227 20 0.0 0.0 0.00 0.00 0.00 47 1014.0
20260508150458 20 0.0 0.0 0.00 0.00 0.00 47 1013.9
20260508145958 20 0.0 0.0 0.00 0.00 0.00 49 1014.0
20260508145500 20 0.0 0.0 0.00 0.00 0.00 50 1014.0
20260508144859 20 0.0 0.0 0.00 0.00 0.00 48 1014.1
20260508144400 19 0.0 0.0 0.00 0.00 0.00 49 1014.0
20260508143859 18 0.0 0.0 0.00 0.00 0.00 50 1014.0
20260508143620 18 0.0 0.0 0.00 0.00 0.00 48 1014.2
20260508142859 18 0.0 0.0 0.00 0.00 0.00 49 1014.3
20260508142359 18 0.0 0.0 0.00 0.00 0.00 50 1014.3
20260508141901 17 0.0 0.0 0.00 0.00 0.00 49 1014.4
20260508141359 17 0.0 0.0 0.00 0.00 0.00 52 1014.4
20260508140900 17 0.0 0.0 0.00 0.00 0.00 52 1014.6
20260508140844 16 0.0 0.0 0.00 0.00 0.00 53 1014.5
20260508135800 17 0.0 0.0 0.00 0.00 0.00 54 1014.6
20260508135300 16 0.0 0.0 0.00 0.00 0.00 55 1014.7
20260508134800 16 0.0 0.0 0.00 0.00 0.00 55 1014.7
20260508134300 15 0.0 0.0 0.00 0.00 0.00 57 1014.7
20260508133801 15 0.0 0.0 0.00 0.00 0.00 57 1014.7
20260508133300 14 0.0 0.0 0.00 0.00 0.00 60 1014.7
20260508132800 14 0.0 0.0 0.00 0.00 0.00 61 1014.6
20260508132524 13 0.0 0.0 0.00 0.00 0.00 61 1014.7
20260508131800 13 0.0 0.0 0.00 0.00 0.00 62 1014.8
20260508131202 13 0.0 0.0 0.00 0.00 0.00 61 1014.7
20260508130702 13 0.0 0.0 0.00 0.00 0.00 62 1014.6
20260508130200 13 0.0 0.0 0.00 0.00 0.00 62 1014.6
20260508125603 12 0.0 0.0 0.00 0.00 0.00 63 1014.5
20260508125320 12 0.0 0.0 0.00 0.00 0.00 63 1014.6
20260508124820 12 0.0 0.0 0.00 0.00 0.00 64 1014.6
20260508124102 11 0.0 0.0 0.00 0.00 0.00 65 1014.5
20260508123601 11 0.0 0.0 0.00 0.00 0.00 67 1014.6
20260508123102 11 0.0 0.0 0.00 0.00 0.00 68 1014.5
20260508122602 10 0.0 0.0 0.00 0.00 0.00 69 1014.5
20260508122102 10 0.0 0.0 0.00 0.00 0.00 70 1014.5
20260508121504 8 0.0 0.0 0.00 0.00 0.00 72 1014.6
20260508120903 8 0.0 0.0 0.00 0.00 0.00 72 1014.6
20260508120402 8 0.0 0.0 0.00 0.00 0.00 72 1014.6
20260508115902 8 0.0 0.0 0.00 0.00 0.00 72 1014.6
20260508115626 8 0.0 0.0 0.00 0.00 0.00 73 1014.5
20260508114902 8 0.0 0.0 0.00 0.00 0.00 75 1014.6
20260508114403 8 0.0 0.0 0.00 0.00 0.00 76 1014.5
20260508113902 7 0.0 0.0 0.00 0.00 0.00 76 1014.4
20260508113402 7 0.0 0.0 0.00 0.00 0.00 76 1014.3
20260508112903 8 0.0 0.0 0.00 0.00 0.00 75 1014.2
20260508112306 8 0.0 0.0 0.00 0.00 0.00 75 1014.2
20260508111804 8 0.0 0.0 0.00 0.00 0.00 73 1014.2
20260508111304 8 0.0 0.0 0.00 0.00 0.00 73 1014.2
20260508110804 8 0.0 0.0 0.00 0.00 0.00 73 1014.1
20260508110522 8 0.0 0.0 0.00 0.00 0.00 73 1014.1
20260508105804 7 0.0 0.0 0.00 0.00 0.00 75 1014.1
20260508105306 8 0.0 0.0 0.00 0.00 0.00 73 1014.1
20260508104805 7 0.0 0.0 0.00 0.00 0.00 73 1014.1
20260508104303 7 0.0 0.0 0.00 0.00 0.00 75 1014.1
20260508103805 7 0.0 0.0 0.00 0.00 0.00 75 1014.1
20260508103204 7 0.0 0.0 0.00 0.00 0.00 76 1014.0
20260508102603 7 0.0 0.0 0.00 0.00 0.00 75 1014.0
20260508102106 7 0.0 0.0 0.00 0.00 0.00 76 1014.0
20260508101604 7 0.0 0.0 0.00 0.00 0.00 77 1014.0
20260508101327 7 0.0 0.0 0.00 0.00 0.00 78 1014.0
20260508100605 7 0.0 0.0 0.00 0.00 0.00 78 1013.9
20260508100104 7 0.0 0.0 0.00 0.00 0.00 78 1014.0
20260508095604 7 0.0 0.0 0.00 0.00 0.00 78 1014.0
20260508095106 7 0.0 0.0 0.00 0.00 0.00 78 1014.0
20260508094605 7 0.0 0.0 0.00 0.00 0.00 78 1014.0
20260508094004 6 0.0 0.0 0.00 0.00 0.00 78 1014.0
20260508093504 6 0.0 0.0 0.00 0.00 0.00 78 1013.9
20260508093005 6 0.0 0.0 0.00 0.00 0.00 79 1013.9
20260508092507 6 0.0 0.0 0.00 0.00 0.00 79 1014.0
20260508091905 6 0.0 0.0 0.00 0.00 0.00 82 1014.0
20260508091405 6 0.0 0.0 0.00 0.00 0.00 82 1014.0
20260508091129 5 0.0 0.0 0.00 0.00 0.00 80 1014.0
20260508090407 5 0.0 0.0 0.00 0.00 0.00 80 1014.1
20260508085906 5 0.0 0.0 0.00 0.00 0.00 82 1014.0
20260508085622 5 0.0 0.0 0.00 0.00 0.00 80 1013.9
20260508084806 5 0.0 0.0 0.00 0.00 0.00 80 1013.9
20260508084205 5 0.0 0.0 0.00 0.00 0.00 80 1013.8
20260508083934 5 0.0 0.0 0.00 0.00 0.00 82 1013.9
20260508083207 5 0.0 0.0 0.00 0.00 0.00 80 1013.9
20260508082706 5 0.0 0.0 0.00 0.00 0.00 80 1013.9
20260508082206 5 0.0 0.0 0.00 0.00 0.00 79 1013.9
20260508081706 5 0.0 0.0 0.00 0.00 0.00 79 1013.8
20260508081206 5 0.0 0.0 0.00 0.00 0.00 79 1013.7
20260508080706 5 0.0 0.0 0.00 0.00 0.00 79 1013.7
20260508080208 5 0.0 0.0 0.00 0.00 0.00 79 1013.8
20260508075706 5 0.0 0.0 0.00 0.00 0.00 79 1013.9
20260508075106 5 0.0 0.0 0.00 0.00 0.00 78 1013.8
20260508074831 5 0.0 0.0 0.00 0.00 0.00 79 1013.8
20260508074106 5 0.0 0.0 0.00 0.00 0.00 79 1013.7
20260508073606 5 0.0 0.0 0.00 0.00 0.00 79 1013.8
20260508073108 5 0.0 0.0 0.00 0.00 0.00 79 1013.8
20260508072609 5 0.0 0.0 0.00 0.00 0.00 79 1013.8
20260508072107 5 0.0 0.0 0.00 0.00 0.00 79 1013.8
20260508071608 5 0.0 0.0 0.00 0.00 0.00 79 1013.8
20260508071108 5 0.0 0.0 0.00 0.00 0.00 79 1013.9
20260508070607 5 0.0 0.0 0.00 0.00 0.00 79 1013.9
20260508070007 5 0.0 0.0 0.00 0.00 0.00 79 1013.9
20260508065507 5 0.0 0.0 0.00 0.00 0.00 79 1013.9
20260508065008 5 0.0 0.0 0.00 0.00 0.00 79 1014.0
20260508064508 5 0.0 0.0 0.00 0.00 0.00 78 1014.2
20260508064008 5 0.0 0.0 0.00 0.00 0.00 78 1014.3
20260508063741 5 0.0 0.0 0.00 0.00 0.00 79 1014.3
20260508063007 5 0.0 0.0 0.00 0.00 0.00 79 1014.4
20260508062509 5 0.0 0.0 0.00 0.00 0.00 79 1014.3
20260508062008 5 0.0 0.0 0.00 0.00 0.00 79 1014.4
20260508061409 5 0.0 0.0 0.00 0.00 0.00 79 1014.4
20260508060809 5 0.0 0.0 0.00 0.00 0.00 79 1014.5
20260508060209 5 0.0 0.0 0.00 0.00 0.00 79 1014.5
20260508055933 5 0.0 0.0 0.00 0.00 0.00 79 1014.5
20260508055210 5 0.0 0.0 0.00 0.00 0.00 79 1014.5
20260508054711 6 0.0 0.0 0.00 0.00 0.00 79 1014.5
20260508054653 6 0.0 0.0 0.00 0.00 0.00 79 1014.5
20260508053709 6 0.0 0.0 0.00 0.00 0.00 79 1014.6
20260508053209 6 0.0 0.0 0.00 0.00 0.00 79 1014.5
20260508052711 6 0.0 0.0 0.00 0.00 0.00 79 1014.4
20260508052427 6 0.0 0.0 0.00 0.00 0.00 79 1014.5
20260508051829 6 0.0 0.0 0.00 0.00 0.00 78 1014.4
20260508051010 6 0.0 0.0 0.00 0.00 0.00 77 1014.3
20260508050730 6 0.0 0.0 0.00 0.00 0.00 76 1014.3
20260508050012 6 0.0 0.0 0.00 0.00 0.00 77 1014.3
20260508045510 6 0.0 0.0 0.00 0.00 0.00 77 1014.4
20260508045010 6 0.0 0.0 0.00 0.00 0.00 78 1014.4
20260508044510 6 0.0 0.0 0.00 0.00 0.00 78 1014.4
20260508044236 6 0.0 0.0 0.00 0.00 0.00 78 1014.4
20260508043510 6 0.0 0.0 0.00 0.00 0.00 78 1014.3
20260508043012 6 0.0 0.0 0.00 0.00 0.00 77 1014.3
20260508042411 6 0.0 0.0 0.00 0.00 0.00 77 1014.3
20260508041811 6 0.0 0.0 0.00 0.00 0.00 77 1014.3
20260508041533 6 0.0 0.0 0.00 0.00 0.00 77 1014.2
20260508041034 6 0.0 0.0 0.00 0.00 0.00 77 1014.1
20260508040516 6 0.0 0.0 0.00 0.00 0.00 77 1014.2
20260508035313 6 0.0 0.0 0.00 0.00 0.00 77 1014.2
20260508034812 6 0.0 0.0 0.00 0.00 0.00 76 1014.2
20260508034312 6 0.0 0.0 0.00 0.00 0.00 76 1014.3
20260508033813 7 0.0 0.0 0.00 0.00 0.00 76 1014.3
20260508033312 7 0.0 0.0 0.00 0.00 0.00 76 1014.3
20260508032714 7 0.0 0.0 0.00 0.00 0.00 75 1014.3
20260508032112 7 0.0 0.0 0.00 0.00 0.00 75 1014.3
20260508031836 7 0.0 0.0 0.00 0.00 0.00 75 1014.3
20260508031112 7 0.0 0.0 0.00 0.00 0.00 73 1014.3
20260508030613 7 0.0 0.0 0.00 0.00 0.00 73 1014.2
20260508030112 7 0.0 0.0 0.00 0.00 0.00 73 1014.3
20260508025612 7 0.0 0.0 0.00 0.00 0.00 73 1014.3
20260508025336 7 0.0 0.0 0.00 0.00 0.00 72 1014.3
20260508024612 7 0.0 0.0 0.00 0.00 0.00 71 1014.3
20260508024014 7 0.0 0.0 0.00 0.00 0.00 71 1014.2
20260508023413 8 0.0 0.0 0.00 0.00 0.00 70 1014.1
20260508023135 8 0.0 0.0 0.00 0.00 0.00 70 1014.1
20260508022638 8 0.0 0.0 0.00 0.00 0.00 69 1014.2
20260508021914 8 0.0 0.0 0.00 0.00 0.00 69 1014.2
20260508021413 8 0.0 0.0 0.00 0.00 0.00 69 1014.0
20260508020913 8 0.0 0.0 0.00 0.00 0.00 68 1014.1
20260508020413 8 0.0 0.0 0.00 0.00 0.00 67 1014.1
20260508015913 8 0.0 0.0 0.00 0.00 0.00 67 1014.1
20260508015414 8 0.0 0.0 0.00 0.00 0.00 65 1014.1
20260508014915 9 0.0 0.0 0.00 0.00 0.00 64 1014.1
20260508014314 9 0.0 0.0 0.00 0.00 0.00 64 1014.1
20260508013714 9 0.0 0.0 0.00 0.00 0.00 62 1014.1
20260508013214 10 0.0 0.0 0.00 0.00 0.00 62 1013.9
20260508012714 10 0.0 0.0 0.00 0.00 0.00 62 1013.9
20260508012213 10 0.0 0.0 0.00 0.00 0.00 61 1013.9
20260508011716 10 0.0 0.0 0.00 0.00 0.00 60 1014.0
20260508011214 10 0.0 0.0 0.00 0.00 0.00 60 1013.8
20260508010715 10 0.0 0.0 0.00 0.00 0.00 60 1013.9
20260508010215 11 0.0 0.0 0.00 0.00 0.00 58 1013.8
20260508005714 11 0.0 0.0 0.00 0.00 0.00 58 1013.7
20260508005116 11 0.0 0.0 0.00 0.00 0.00 57 1013.7
20260508004615 11 0.0 0.0 0.00 0.00 0.00 56 1013.7
20260508004116 11 0.0 0.0 0.00 0.00 0.00 54 1013.7
20260508003615 12 0.0 0.0 0.00 0.00 0.00 55 1013.7
20260508003116 12 0.0 0.0 0.00 0.00 0.00 53 1013.6
20260508002615 12 0.0 0.0 0.00 0.00 0.00 53 1013.6
20260508002128 12 0.0 0.0 0.00 0.00 0.00 51 1013.5
20260508001615 13 0.0 0.0 0.00 0.00 0.00 50 1013.5
20260508001115 13 0.0 0.0 0.00 0.00 0.00 50 1013.4
20260508000615 13 0.0 0.0 0.00 0.00 0.00 49 1013.5
20260508000015 13 0.0 0.0 0.00 0.00 0.00 49 1013.4
20260507235418 13 0.0 0.0 0.00 0.00 0.00 48 1013.4
20260507234916 13 0.0 0.0 0.00 0.00 0.00 48 1013.3
20260507234416 13 0.0 0.0 0.00 0.00 0.00 49 1013.3
20260507234402 13 0.0 0.0 0.00 0.00 0.00 48 1013.3
20260507233416 14 0.0 0.0 0.00 0.00 0.00 48 1013.3
20260507233141 14 0.0 0.0 0.00 0.00 0.00 47 1013.3
20260507232416 14 0.0 0.0 0.00 0.00 0.00 47 1013.3
20260507231916 14 0.0 0.0 0.00 0.00 0.00 46 1013.2
20260507231417 15 0.0 0.0 0.00 0.00 0.00 47 1013.2
20260507230816 15 0.0 0.0 0.00 0.00 0.00 47 1013.3
20260507230316 15 0.0 0.0 0.00 0.00 0.00 47 1013.3
20260507225818 15 0.0 0.0 0.00 0.00 0.00 46 1013.3
20260507225317 15 0.0 0.0 0.00 0.00 0.00 46 1013.3
20260507224817 15 0.0 0.0 0.00 0.00 0.00 46 1013.2
20260507224544 15 0.0 0.0 0.00 0.00 0.00 45 1013.4
20260507223817 16 0.0 0.0 0.00 0.00 0.00 45 1013.3
20260507223317 16 0.0 0.0 0.00 0.00 0.00 43 1013.3
20260507222817 16 0.0 0.0 0.00 0.00 0.00 45 1013.3
20260507222319 16 0.0 0.0 0.00 0.00 0.00 45 1013.2
20260507221717 16 0.0 0.0 0.00 0.00 0.00 43 1013.2
20260507221219 16 0.0 0.0 0.00 0.00 0.00 42 1013.3
20260507220717 16 0.0 0.0 0.00 0.00 0.00 45 1013.3